TimeMST,TemperatureF,Dew PointF,Humidity,Sea Level PressureIn,VisibilityMPH,Wind Direction,Wind SpeedMPH,Gust SpeedMPH,PrecipitationIn,Events,Conditions,WindDirDegrees,DateUTC
12:53 AM,28.0,23.0,81,30.21,4.0,Calm,Calm,-,N/A,,Haze,0,2013-03-03 07:53:00
1:53 AM,27.0,23.0,85,30.20,3.0,Calm,Calm,-,N/A,,Clear,0,2013-03-03 08:53:00
2:53 AM,26.1,21.9,84,30.15,4.0,SSW,3.5,-,N/A,,Clear,210,2013-03-03 09:53:00
3:53 AM,24.1,21.9,91,30.12,3.0,Calm,Calm,-,N/A,,Clear,0,2013-03-03 10:53:00
4:53 AM,24.1,21.9,91,30.11,4.0,Calm,Calm,-,N/A,,Clear,0,2013-03-03 11:53:00
5:53 AM,25.0,21.0,85,30.11,5.0,Calm,Calm,-,N/A,,Clear,0,2013-03-03 12:53:00
6:53 AM,26.1,21.9,84,30.10,5.0,Calm,Calm,-,N/A,,Clear,0,2013-03-03 13:53:00
7:53 AM,26.1,23.0,88,30.10,4.0,Calm,Calm,-,N/A,,Clear,0,2013-03-03 14:53:00
8:53 AM,28.9,24.1,82,30.08,4.0,Calm,Calm,-,N/A,,Haze,0,2013-03-03 15:53:00
9:53 AM,30.0,24.1,79,30.07,4.0,SE,5.8,-,N/A,,Haze,140,2013-03-03 16:53:00
10:53 AM,28.9,24.1,82,30.05,3.0,ENE,3.5,-,N/A,,Haze,70,2013-03-03 17:53:00
11:53 AM,33.1,24.1,70,30.01,5.0,Calm,Calm,-,N/A,,Haze,0,2013-03-03 18:53:00
12:53 PM,36.0,24.1,62,29.96,5.0,Calm,Calm,-,N/A,,Haze,0,2013-03-03 19:53:00
1:53 PM,36.0,25.0,64,29.94,7.0,ENE,3.5,-,N/A,,Scattered Clouds,70,2013-03-03 20:53:00
2:53 PM,37.9,25.0,60,29.92,9.0,East,4.6,-,N/A,,Clear,80,2013-03-03 21:53:00
3:53 PM,37.9,26.1,62,29.92,8.0,Calm,Calm,-,N/A,,Clear,0,2013-03-03 22:53:00
4:53 PM,37.9,27.0,65,29.91,8.0,East,4.6,-,N/A,,Clear,100,2013-03-03 23:53:00
5:53 PM,35.1,27.0,72,29.92,6.0,SSE,5.8,-,N/A,,Haze,150,2013-03-04 00:53:00
6:53 PM,32.0,26.1,79,29.93,6.0,NE,3.5,-,N/A,,Haze,40,2013-03-04 01:53:00
7:53 PM,30.9,25.0,79,29.93,6.0,WSW,4.6,-,N/A,,Haze,240,2013-03-04 02:53:00
8:53 PM,32.0,26.1,79,29.91,5.0,NW,3.5,-,N/A,,Haze,310,2013-03-04 03:53:00
9:53 PM,32.0,26.1,79,29.91,6.0,West,4.6,-,N/A,,Haze,270,2013-03-04 04:53:00
10:53 PM,33.1,26.1,75,29.88,10.0,SW,5.8,-,N/A,,Clear,230,2013-03-04 05:53:00
11:53 PM,30.0,25.0,82,29.88,8.0,Calm,Calm,-,N/A,,Clear,0,2013-03-04 06:53:00